QPF
0.00 0.00 0.00 0.00 0.00 0.00 0.00 0.00 0.00 0.00 0.00 0.00 0.00 0.00 0.00 0.00 0.00 0.00 0.00 0.00 0.00 0.00 0.00 0.00 0.00 0.00 0.00 0.00 0.00 0.00 0.00 0.00 0.00 0.00 0.00 0.00 0.00 0.00 0.00 0.00 0.00 0.00 0.00 0.00 0.00
0.00 0.00 0.00 0.00 0.00 0.00 0.00 0.00 0.00 0.00 0.00 0.00 0.00 0.00 0.00 0.00 0.00 0.00 0.00 0.00 0.00 0.00 0.00 0.00 0.00 0.00 0.00 0.00 0.00 0.00 0.00 0.00 0.00 0.00 0.00 0.00 0.00 0.00 0.00 0.00 0.00 0.00 0.00 0.00 0.00
0.00 0.00 0.00 0.00 0.00 0.00 0.00 0.00 0.00 0.00 0.00 0.00 0.00 0.00 0.00 0.00 0.00 0.00 0.00 0.00 0.00 0.00 0.00 0.00 0.00 0.00 0.00 0.00 0.00 0.00 0.00 0.00 0.00 0.00 0.00 0.00 0.00 0.00 0.00 0.00 0.00 0.00 0.00 0.00 0.01
0.00 0.00 0.00 0.00 0.00 0.00 0.00 0.00 0.00 0.00 0.00 0.00 0.00 0.00 0.00 0.00 0.00 0.00 0.00 0.00 0.00 0.00 0.00 0.00 0.00 0.00 0.00 0.00 0.00 0.00 0.00 0.00 0.00 0.00 0.00 0.00 0.00 0.00 0.00 0.00 0.00 0.00 0.00 0.00 0.00
0.00 0.00 0.00 0.00 0.00 0.00 0.00 0.00 0.00 0.00 0.00 0.00 0.00 0.00 0.00 0.00 0.00 0.00 0.00 0.00 0.00 0.00 0.00 0.00 0.00 0.00 0.00 0.00 0.00 0.00 0.00 0.00 0.00 0.00 0.00 0.00 0.00 0.00 0.00 0.00 0.00 0.00 0.00 0.00 0.01
0.00 0.00 0.00 0.00 0.00 0.00 0.00 0.00 0.00 0.00 0.00 0.00 0.00 0.00 0.00 0.00 0.00 0.00 0.00 0.00 0.00 0.00 0.00 0.00 0.00 0.00 0.00 0.00 0.00 0.00 0.00 0.00 0.00 0.00 0.00 0.00 0.00 0.00 0.00 0.00 0.00 0.00 0.00 0.00 0.01
0.00 0.00 0.00 0.00 0.00 0.00 0.00 0.00 0.00 0.00 0.00 0.00 0.00 0.00 0.00 0.00 0.00 0.00 0.00 0.00 0.00 0.00 0.00 0.00 0.00 0.00 0.00 0.00 0.00 0.00 0.00 0.00 0.00 0.00 0.00 0.00 0.00 0.00 0.00 0.00 0.00 0.00 0.00 0.00 0.01
0.00 0.00 0.00 0.00 0.00 0.00 0.00 0.00 0.00 0.00 0.00 0.00 0.00 0.00 0.00 0.00 0.00 0.00 0.00 0.00 0.00 0.00 0.00 0.00 0.00 0.00 0.00 0.00 0.00 0.00 0.00 0.00 0.00 0.00 0.00 0.00 0.00 0.00 0.00 0.00 0.00 0.00 0.00 0.00 0.02
0.00 0.00 0.00 0.00 0.00 0.00 0.00 0.00 0.00 0.00 0.00 0.00 0.00 0.00 0.00 0.00 0.00 0.00 0.00 0.00 0.00 0.00 0.00 0.00 0.00 0.00 0.00 0.00 0.00 0.00 0.01 0.00 0.00 0.00 0.00 0.00 0.00 0.00 0.00 0.00 0.00 0.00 0.00 0.00 0.00
0.00 0.00 0.00 0.00 0.00 0.00 0.00 0.00 0.00 0.00 0.00 0.00 0.00 0.00 0.00 0.00 0.00 0.00 0.00 0.00 0.00 0.00 0.00 0.00 0.00 0.00 0.00 0.00 0.00 0.00 0.00 0.00 0.00 0.00 0.00 0.00 0.00 0.00 0.00 0.00 0.00 0.00 0.00 0.00 0.00
0.00 0.00 0.00 0.00 0.00 0.00 0.00 0.00 0.00 0.00 0.00 0.00 0.00 0.00 0.00 0.00 0.00 0.00 0.00 0.00 0.00 0.00 0.00 0.00 0.00 0.00 0.00 0.00 0.00 0.00 0.00 0.00 0.00 0.00 0.00 0.00 0.00 0.02 0.00 0.01 0.01 0.02 0.00 0.00 0.00
0.00 0.00 0.00 0.00 0.00 0.00 0.00 0.00 0.00 0.00 0.00 0.00 0.00 0.00 0.00 0.00 0.00 0.00 0.00 0.00 0.00 0.00 0.00 0.00 0.00 0.00 0.00 0.00 0.00 0.00 0.00 0.00 0.00 0.00 0.00 0.00 0.03 0.04 0.01 0.05 0.07 0.08 0.06 0.01 0.00
0.00 0.00 0.00 0.00 0.00 0.00 0.00 0.00 0.00 0.00 0.00 0.00 0.00 0.00 0.00 0.00 0.00 0.00 0.00 0.00 0.00 0.00 0.00 0.00 0.00 0.00 0.00 0.00 0.00 0.00 0.00 0.00 0.00 0.00 0.00 0.00 0.03 0.03 0.03 0.02 0.03 0.07 0.13 0.04 0.00
0.00 0.00 0.00 0.00 0.00 0.00 0.00 0.00 0.00 0.00 0.00 0.00 0.00 0.00 0.00 0.00 0.00 0.00 0.00 0.00 0.00 0.00 0.00 0.00 0.00 0.00 0.00 0.00 0.00 0.00 0.00 0.00 0.00 0.00 0.01 0.02 0.03 0.04 0.03 0.01 0.01 0.06 0.13 0.10 0.01
0.00 0.00 0.00 0.00 0.00 0.00 0.00 0.00 0.00 0.00 0.00 0.00 0.00 0.00 0.00 0.00 0.00 0.00 0.00 0.00 0.00 0.00 0.00 0.00 0.00 0.00 0.00 0.00 0.00 0.00 0.00 0.00 0.00 0.00 0.00 0.00 0.05 0.03 0.02 0.01 0.01 0.07 0.12 0.16 0.03
0.00 0.00 0.00 0.00 0.00 0.00 0.00 0.00 0.00 0.00 0.00 0.00 0.00 0.00 0.00 0.00 0.00 0.00 0.00 0.00 0.00 0.00 0.00 0.00 0.00 0.00 0.00 0.00 0.00 0.00 0.00 0.00 0.00 0.00 0.00 0.00 0.04 0.02 0.03 0.03 0.02 0.05 0.11 0.15 0.09
0.00 0.00 0.00 0.00 0.00 0.00 0.00 0.00 0.00 0.00 0.00 0.00 0.00 0.00 0.00 0.00 0.00 0.00 0.00 0.00 0.00 0.00 0.00 0.00 0.00 0.00 0.00 0.00 0.00 0.00 0.00 0.00 0.00 0.00 0.00 0.02 0.01 0.03 0.03 0.02 0.03 0.05 0.09 0.15 0.14
0.00 0.00 0.00 0.00 0.00 0.00 0.00 0.00 0.00 0.00 0.00 0.00 0.00 0.00 0.00 0.00 0.00 0.00 0.00 0.00 0.00 0.00 0.00 0.00 0.00 0.00 0.00 0.00 0.00 0.00 0.00 0.00 0.00 0.00 0.00 0.01 0.02 0.01 0.02 0.02 0.01 0.03 0.07 0.12 0.16
0.00 0.00 0.00 0.00 0.00 0.00 0.00 0.00 0.00 0.00 0.00 0.00 0.00 0.00 0.00 0.00 0.00 0.00 0.00 0.00 0.00 0.00 0.00 0.00 0.00 0.00 0.00 0.00 0.00 0.00 0.00 0.00 0.00 0.00 0.00 0.01 0.01 0.00 0.00 0.00 0.00 0.01 0.03 0.07 0.14
0.00 0.00 0.00 0.00 0.00 0.00 0.00 0.00 0.00 0.00 0.00 0.00 0.00 0.00 0.00 0.00 0.00 0.00 0.00 0.00 0.00 0.00 0.00 0.00 0.01 0.00 0.00 0.00 0.00 0.00 0.00 0.00 0.00 0.00 0.00 0.00 0.00 0.00 0.00 0.00 0.00 0.00 0.01 0.05 0.09
0.00 0.00 0.00 0.00 0.00 0.00 0.00 0.00 0.00 0.00 0.00 0.00 0.00 0.00 0.00 0.00 0.00 0.00 0.00 0.00 0.00 0.00 0.00 0.00 0.00 0.00 0.00 0.00 0.00 0.00 0.00 0.00 0.00 0.00 0.00 0.00 0.00 0.00 0.00 0.01 0.01 0.00 0.01 0.03 0.09
0.00 0.00 0.00 0.00 0.00 0.00 0.00 0.00 0.00 0.00 0.00 0.00 0.00 0.00 0.00 0.00 0.00 0.00 0.00 0.00 0.00 0.00 0.00 0.00 0.00 0.00 0.00 0.00 0.00 0.00 0.00 0.00 0.00 0.00 0.00 0.00 0.00 0.00 0.00 0.00 0.00 0.00 0.00 0.01 0.04
0.00 0.00 0.00 0.00 0.00 0.00 0.00 0.00 0.00 0.00 0.00 0.00 0.00 0.00 0.00 0.00 0.00 0.00 0.00 0.00 0.00 0.00 0.00 0.00 0.00 0.00 0.00 0.00 0.00 0.00 0.00 0.00 0.00 0.00 0.00 0.00 0.00 0.00 0.00 0.00 0.00 0.00 0.00 0.00 0.00
0.00 0.00 0.00 0.00 0.00 0.00 0.00 0.00 0.00 0.00 0.00 0.00 0.00 0.00 0.00 0.00 0.00 0.00 0.00 0.00 0.00 0.00 0.00 0.00 0.00 0.00 0.00 0.00 0.00 0.00 0.00 0.00 0.00 0.00 0.00 0.00 0.00 0.00 0.00 0.00 0.00 0.00 0.00 0.00 0.00
0.00 0.00 0.00 0.00 0.00 0.00 0.00 0.00 0.00 0.00 0.00 0.00 0.00 0.00 0.00 0.00 0.00 0.00 0.00 0.00 0.00 0.00 0.00 0.00 0.00 0.00 0.00 0.00 0.00 0.00 0.00 0.00 0.00 0.00 0.00 0.00 0.00 0.00 0.00 0.00 0.00 0.00 0.00 0.00 0.00
0.00 0.00 0.00 0.00 0.00 0.00 0.00 0.00 0.00 0.00 0.00 0.00 0.00 0.00 0.00 0.00 0.00 0.00 0.00 0.00 0.00 0.00 0.00 0.00 0.00 0.00 0.00 0.00 0.00 0.00 0.00 0.00 0.00 0.00 0.00 0.00 0.00 0.00 0.00 0.00 0.00 0.00 0.00 0.00 0.00
0.00 0.00 0.00 0.00 0.00 0.00 0.00 0.00 0.00 0.00 0.00 0.00 0.00 0.00 0.00 0.00 0.00 0.00 0.00 0.00 0.00 0.00 0.00 0.00 0.00 0.00 0.00 0.00 0.00 0.00 0.00 0.00 0.00 0.00 0.00 0.00 0.00 0.00 0.00 0.00 0.00 0.00 0.00 0.00 0.00
MSLP
1024.03 1023.85 1023.66 1023.64 1023.47 1023.27 1023.07 1022.77 1022.65 1022.49 1022.19 1021.90 1021.62 1021.32 1021.03 1020.97 1021.38 1021.06 1020.98 1022.29 1021.23 1020.26 1019.82 1019.77 1019.34 1019.14 1018.36 1018.14 1017.54 1016.83 1016.49 1014.09 1012.44 1012.24 1011.93 1011.30 1011.24 1010.40 1009.75 1009.31 1008.52 1007.90 1007.63 1007.20 1006.74
1024.26 1024.06 1023.87 1023.71 1023.67 1023.53 1023.29 1022.98 1022.80 1022.60 1022.32 1022.08 1021.72 1021.33 1020.94 1021.07 1021.74 1022.40 1023.08 1022.08 1021.27 1020.53 1020.47 1020.27 1019.85 1019.52 1019.26 1018.71 1018.07 1017.50 1016.18 1013.12 1012.65 1012.69 1012.35 1011.79 1011.90 1011.72 1010.80 1009.80 1009.11 1008.51 1008.26 1007.84 1007.21
1024.52 1024.36 1024.24 1024.01 1023.69 1023.52 1023.33 1023.10 1022.84 1022.51 1022.22 1021.95 1021.71 1021.65 1021.27 1021.20 1022.29 1023.87 1022.96 1022.17 1021.49 1021.04 1021.02 1020.75 1020.49 1020.24 1020.05 1019.38 1018.52 1017.38 1015.27 1013.86 1013.56 1013.36 1013.25 1012.93 1012.42 1011.96 1011.45 1010.55 1009.79 1009.82 1009.37 1008.71 1007.84
1024.91 1024.58 1024.20 1023.79 1023.69 1023.60 1023.34 1023.17 1022.88 1022.65 1022.38 1022.04 1021.71 1021.51 1021.63 1021.55 1024.38 1024.62 1023.28 1022.60 1021.93 1021.52 1021.19 1021.04 1020.88 1020.94 1020.82 1020.18 1019.29 1018.48 1016.51 1016.23 1015.53 1014.99 1014.40 1013.55 1012.98 1012.29 1011.80 1010.93 1010.29 1010.27 1009.99 1009.17 1008.26
1024.93 1024.52 1024.21 1023.96 1023.57 1023.33 1023.13 1022.93 1022.83 1022.71 1022.61 1022.28 1022.02 1021.74 1022.16 1023.83 1025.32 1024.77 1023.79 1022.95 1022.35 1022.00 1021.75 1021.66 1021.54 1021.30 1021.14 1020.60 1019.97 1019.10 1017.97 1017.24 1016.57 1015.98 1015.36 1014.36 1013.55 1012.94 1011.36 1011.35 1010.83 1010.09 1009.95 1009.49 1008.67
1025.21 1024.92 1024.53 1024.05 1023.37 1023.05 1022.87 1022.64 1022.44 1022.43 1022.54 1022.37 1022.43 1022.39 1023.09 1024.77 1025.51 1025.01 1024.12 1023.11 1022.65 1022.36 1021.77 1021.66 1021.53 1021.43 1021.41 1021.01 1020.74 1019.49 1018.69 1017.91 1017.14 1016.36 1015.64 1014.97 1013.88 1013.65 1011.94 1011.64 1011.13 1010.65 1010.14 1009.54 1009.06
1025.21 1024.76 1024.23 1023.95 1023.76 1023.68 1023.31 1023.00 1022.67 1022.53 1022.38 1022.31 1022.35 1022.99 1024.29 1025.87 1025.77 1025.07 1024.13 1023.31 1022.49 1022.25 1021.83 1021.05 1021.13 1021.45 1021.47 1021.06 1020.42 1020.02 1019.56 1018.45 1017.34 1016.23 1015.46 1014.43 1013.87 1013.24 1012.74 1012.01 1011.62 1011.14 1010.59 1010.00 1009.46
1025.22 1025.02 1024.72 1024.63 1024.43 1023.87 1023.16 1023.17 1023.01 1022.85 1022.42 1022.36 1022.51 1023.32 1024.94 1025.37 1025.50 1025.04 1024.16 1023.26 1022.30 1022.05 1021.57 1020.85 1021.10 1021.62 1021.80 1021.31 1020.78 1020.51 1020.02 1019.46 1017.90 1016.68 1015.66 1015.18 1014.28 1014.03 1013.21 1012.45 1011.91 1011.51 1011.64 1011.13 1010.92
1025.41 1025.26 1025.00 1024.57 1024.04 1023.52 1023.19 1023.04 1022.99 1022.97 1022.90 1022.78 1023.19 1023.77 1025.41 1025.02 1025.43 1025.44 1024.20 1023.89 1022.97 1022.20 1021.82 1021.22 1021.44 1022.59 1022.59 1022.54 1022.50 1022.43 1022.33 1021.06 1019.33 1017.86 1016.98 1016.43 1015.99 1015.55 1014.91 1013.28 1014.39 1014.34 1013.88 1013.78 1013.06
1025.55 1025.16 1024.75 1024.21 1023.58 1023.27 1023.18 1023.11 1023.15 1023.25 1023.60 1023.28 1023.74 1024.97 1025.50 1026.22 1026.10 1025.90 1024.75 1024.28 1024.02 1023.45 1022.68 1022.74 1023.46 1024.06 1023.91 1024.40 1025.11 1024.59 1023.75 1022.23 1020.90 1018.95 1018.16 1017.45 1017.51 1017.75 1017.70 1017.02 1017.25 1017.16 1016.42 1015.97 1015.70
1025.66 1025.37 1025.03 1024.62 1024.23 1024.05 1023.66 1023.60 1024.19 1024.50 1025.12 1025.88 1026.70 1026.90 1026.94 1026.76 1026.46 1026.21 1025.48 1025.06 1024.90 1024.86 1025.07 1024.96 1024.97 1025.54 1025.64 1025.54 1025.42 1025.23 1024.47 1023.43 1021.55 1020.48 1019.62 1018.62 1019.15 1019.81 1019.76 1018.94 1019.45 1019.28 1018.90 1018.19 1017.87
1025.51 1025.26 1025.00 1024.86 1024.97 1024.49 1025.00 1025.76 1025.86 1026.20 1026.76 1026.86 1026.92 1026.95 1026.99 1027.01 1027.17 1027.05 1026.37 1026.33 1026.39 1026.65 1026.67 1026.40 1026.48 1026.48 1026.05 1025.60 1025.34 1024.89 1024.38 1023.79 1022.04 1021.16 1020.96 1019.70 1020.18 1020.61 1021.02 1021.95 1022.01 1021.53 1020.73 1019.72 1019.35
1025.47 1025.06 1024.77 1024.48 1024.94 1025.37 1025.94 1026.68 1026.73 1026.31 1026.73 1027.20 1027.15 1027.27 1027.38 1027.59 1028.27 1028.11 1027.41 1027.72 1027.95 1027.78 1027.92 1028.02 1027.67 1026.93 1026.41 1025.77 1025.37 1024.91 1024.60 1024.35 1024.42 1022.49 1020.49 1020.46 1020.88 1021.62 1022.55 1023.04 1023.11 1022.81 1022.70 1021.75 1021.38
1025.84 1025.49 1025.13 1024.73 1024.97 1026.28 1026.64 1026.54 1026.43 1026.58 1027.03 1027.97 1027.63 1027.96 1027.87 1027.78 1028.65 1028.94 1028.59 1029.35 1029.03 1029.11 1028.79 1028.66 1027.98 1027.65 1027.08 1026.47 1026.32 1025.29 1024.61 1025.02 1024.63 1024.08 1022.20 1021.20 1021.57 1022.56 1023.60 1023.95 1023.99 1023.83 1023.21 1022.86 1022.72
1025.77 1025.50 1025.38 1024.81 1026.34 1026.66 1027.14 1026.88 1026.43 1026.97 1027.82 1028.34 1028.34 1028.33 1028.69 1029.17 1030.20 1029.81 1029.71 1029.68 1030.23 1030.22 1030.55 1029.76 1029.00 1028.41 1027.92 1027.39 1026.92 1026.17 1025.64 1025.05 1024.92 1024.90 1024.04 1021.98 1022.50 1025.28 1024.70 1024.81 1025.21 1025.07 1024.54 1024.23 1023.21
1025.74 1025.44 1025.12 1025.69 1026.46 1026.89 1027.00 1026.85 1026.90 1027.39 1028.68 1028.92 1029.04 1029.40 1029.64 1030.27 1030.67 1030.70 1030.92 1030.98 1031.04 1031.17 1030.78 1030.53 1029.84 1029.63 1029.27 1028.38 1027.68 1027.73 1026.15 1025.72 1025.92 1026.05 1025.67 1024.39 1023.96 1026.73 1026.80 1027.62 1027.10 1026.58 1026.06 1025.19 1023.75
1025.78 1025.53 1025.22 1025.71 1026.63 1026.45 1026.86 1027.24 1027.82 1028.30 1029.63 1030.14 1030.45 1030.63 1031.02 1031.57 1031.49 1032.03 1032.56 1033.07 1033.80 1033.47 1032.83 1031.98 1031.13 1030.60 1030.15 1029.63 1028.65 1029.14 1028.76 1029.39 1028.76 1028.40 1027.50 1026.26 1026.25 1028.65 1028.55 1028.37 1028.16 1027.60 1026.63 1025.57 1024.86
1026.03 1025.66 1026.20 1026.17 1025.82 1026.32 1027.34 1027.59 1028.46 1030.30 1030.63 1031.22 1031.37 1031.38 1031.80 1032.64 1032.90 1033.39 1034.29 1035.36 1035.42 1035.94 1035.75 1035.04 1033.08 1032.31 1031.77 1032.08 1032.29 1032.43 1033.61 1034.01 1033.50 1031.95 1029.82 1028.45 1029.67 1030.17 1029.54 1029.09 1028.54 1028.22 1027.55 1026.76 1025.52
1025.56 1026.54 1026.00 1026.43 1026.40 1026.49 1027.44 1029.39 1030.58 1030.97 1031.42 1031.85 1032.01 1032.28 1032.69 1033.44 1034.30 1034.61 1035.67 1036.44 1036.42 1036.31 1037.00 1036.58 1034.85 1033.22 1032.92 1033.09 1033.68 1034.12 1035.50 1036.16 1035.60 1034.11 1033.06 1032.52 1031.79 1031.00 1030.16 1029.51 1028.88 1028.10 1027.58 1027.26 1027.09
1026.48 1026.29 1026.58 1026.25 1026.38 1026.54 1027.89 1030.64 1031.56 1031.53 1031.66 1032.23 1033.04 1033.41 1033.99 1034.26 1035.01 1035.51 1036.32 1036.10 1036.20 1036.09 1036.56 1037.44 1036.44 1034.29 1033.58 1033.95 1035.10 1035.92 1037.22 1037.87 1037.58 1037.13 1036.12 1034.65 1033.89 1032.90 1031.63 1030.64 1029.78 1028.77 1027.87 1027.40 1026.97
1026.98 1026.86 1026.08 1026.39 1026.06 1026.85 1030.02 1031.24 1031.74 1031.81 1031.94 1032.63 1033.27 1033.89 1034.38 1035.02 1035.48 1036.07 1036.37 1035.70 1035.73 1035.68 1035.94 1036.86 1037.74 1035.57 1035.07 1036.61 1037.57 1037.93 1039.01 1040.03 1040.27 1039.61 1039.15 1038.19 1035.29 1034.04 1033.13 1032.07 1031.00 1030.29 1029.37 1028.50 1027.20
1027.35 1027.12 1026.43 1026.60 1027.52 1029.63 1030.71 1031.09 1031.76 1031.92 1032.25 1032.77 1033.31 1033.93 1034.45 1034.97 1035.44 1035.59 1035.54 1035.09 1035.01 1035.23 1035.67 1036.30 1037.39 1037.74 1037.33 1037.94 1038.60 1039.65 1040.55 1041.40 1041.96 1041.59 1041.09 1040.15 1036.78 1034.63 1033.76 1032.69 1031.74 1031.04 1030.08 1029.29 1028.52
1028.15 1027.53 1026.24 1027.09 1029.19 1030.84 1031.45 1031.38 1031.81 1032.05 1032.35 1033.01 1033.41 1033.90 1034.48 1035.06 1035.56 1035.13 1034.89 1034.16 1034.40 1034.75 1035.11 1035.78 1037.06 1038.11 1037.64 1038.28 1038.32 1039.34 1040.57 1041.39 1042.14 1042.37 1042.66 1041.64 1037.41 1035.16 1034.08 1033.14 1032.28 1031.33 1030.34 1029.07 1028.04
1028.46 1028.38 1027.80 1028.91 1030.59 1030.79 1031.81 1031.61 1031.86 1032.05 1032.28 1032.91 1033.41 1033.96 1034.71 1035.05 1035.25 1035.12 1034.81 1034.20 1034.12 1034.41 1034.51 1035.51 1037.12 1038.36 1039.05 1038.35 1038.19 1038.80 1039.60 1040.86 1041.71 1043.04 1042.74 1041.30 1038.23 1035.65 1034.80 1033.82 1032.71 1031.63 1030.64 1029.65 1028.82
1028.83 1029.59 1029.75 1030.28 1030.93 1031.22 1031.74 1031.55 1031.69 1032.05 1032.36 1032.91 1033.44 1033.81 1034.67 1035.32 1035.18 1035.22 1034.96 1034.63 1034.28 1034.53 1035.28 1036.26 1037.53 1037.60 1037.12 1036.49 1036.49 1036.96 1037.85 1039.13 1040.55 1041.07 1041.55 1040.10 1039.20 1036.27 1035.25 1034.27 1033.24 1032.07 1030.86 1030.00 1029.47
1029.16 1029.76 1030.57 1030.95 1031.16 1031.47 1031.99 1031.68 1031.38 1031.61 1031.98 1032.75 1033.38 1033.39 1034.27 1034.77 1034.43 1034.70 1035.10 1035.26 1034.99 1035.43 1036.01 1036.85 1037.38 1037.67 1036.59 1035.35 1035.34 1035.36 1035.62 1036.83 1038.44 1039.34 1039.58 1038.94 1037.89 1035.30 1034.40 1033.94 1033.19 1032.57 1031.72 1030.83 1029.53
1029.43 1029.43 1029.62 1031.37 1031.42 1031.94 1031.09 1030.90 1030.80 1031.12 1031.58 1031.81 1032.64 1033.43 1033.85 1033.50 1033.62 1033.75 1034.21 1034.71 1035.10 1035.66 1036.57 1037.42 1038.18 1038.59 1037.35 1035.77 1034.94 1034.49 1034.10 1035.04 1036.21 1036.86 1037.17 1036.86 1035.43 1034.71 1034.06 1033.49 1032.69 1032.18 1031.75 1031.19 1030.21
Thickness
5620 5618 5617 5614 5613 5612 5611 5610 5607 5604 5602 5600 5597 5593 5589 5584 5575 5573 5566 5550 5555 5557 5556 5554 5551 5548 5550 5550 5550 5556 5551 5577 5596 5590 5593 5602 5601 5614 5629 5638 5653 5664 5667 5674 5688
5616 5614 5614 5612 5609 5608 5606 5605 5602 5600 5597 5593 5590 5588 5584 5576 5565 5553 5541 5541 5542 5541 5539 5534 5531 5526 5519 5523 5525 5525 5531 5575 5575 5573 5571 5576 5574 5580 5599 5617 5635 5646 5650 5659 5672
5611 5610 5608 5607 5607 5606 5603 5601 5598 5597 5594 5591 5586 5579 5575 5567 5549 5530 5533 5531 5529 5524 5517 5513 5509 5506 5504 5500 5500 5503 5528 5556 5546 5542 5539 5544 5554 5562 5576 5597 5618 5621 5628 5641 5656
5606 5607 5608 5609 5606 5602 5600 5597 5594 5592 5588 5585 5581 5575 5566 5558 5523 5518 5519 5517 5513 5507 5501 5492 5484 5474 5468 5467 5467 5454 5480 5477 5489 5491 5495 5509 5526 5535 5552 5580 5596 5604 5613 5624 5641
5604 5607 5606 5605 5605 5603 5600 5596 5592 5587 5582 5578 5574 5568 5556 5528 5509 5508 5505 5502 5497 5488 5476 5466 5454 5447 5437 5427 5421 5419 5432 5433 5436 5448 5457 5475 5486 5504 5533 5552 5574 5592 5601 5608 5624
5600 5599 5600 5602 5605 5603 5600 5597 5592 5586 5579 5572 5565 5557 5540 5506 5503 5496 5492 5487 5478 5471 5463 5451 5440 5427 5408 5398 5385 5390 5392 5396 5402 5412 5421 5436 5459 5467 5510 5522 5548 5566 5582 5594 5606
5598 5599 5602 5601 5596 5591 5590 5589 5586 5581 5575 5568 5559 5547 5522 5497 5492 5486 5480 5474 5469 5459 5450 5442 5424 5402 5380 5368 5365 5360 5354 5369 5384 5391 5402 5420 5430 5448 5479 5494 5519 5546 5565 5579 5592
5595 5594 5592 5589 5585 5586 5588 5582 5578 5572 5568 5562 5552 5537 5506 5498 5487 5477 5475 5467 5457 5445 5435 5424 5400 5376 5353 5345 5338 5333 5334 5330 5359 5376 5391 5396 5413 5433 5446 5471 5499 5530 5535 5547 5561
5590 5587 5586 5587 5587 5588 5585 5580 5574 5566 5559 5553 5542 5525 5496 5492 5480 5469 5465 5454 5443 5431 5415 5400 5374 5343 5326 5307 5293 5299 5277 5294 5327 5347 5361 5375 5389 5402 5407 5450 5440 5457 5480 5496 5521
5585 5584 5587 5589 5590 5589 5583 5576 5568 5561 5550 5543 5531 5514 5494 5475 5467 5456 5449 5438 5425 5413 5399 5376 5339 5312 5294 5266 5223 5247 5253 5276 5293 5323 5337 5357 5362 5360 5370 5386 5397 5421 5446 5465 5481
5581 5580 5579 5579 5579 5576 5576 5568 5553 5542 5528 5514 5502 5486 5475 5466 5457 5445 5438 5425 5409 5392 5358 5341 5311 5278 5249 5261 5244 5235 5231 5248 5278 5302 5311 5332 5331 5330 5344 5360 5367 5389 5412 5433 5450
5581 5578 5575 5572 5567 5569 5562 5545 5539 5533 5514 5506 5493 5482 5471 5459 5442 5432 5423 5403 5385 5362 5339 5315 5285 5274 5268 5262 5254 5252 5242 5249 5275 5290 5294 5312 5320 5321 5326 5325 5339 5361 5388 5411 5429
5578 5577 5575 5572 5564 5559 5550 5538 5529 5525 5510 5500 5490 5475 5461 5447 5423 5412 5406 5382 5359 5345 5316 5284 5276 5268 5258 5255 5249 5247 5243 5248 5242 5269 5296 5301 5321 5305 5310 5318 5327 5343 5362 5385 5402
5570 5569 5568 5566 5562 5546 5539 5535 5527 5518 5496 5491 5479 5461 5449 5438 5416 5400 5386 5360 5347 5328 5307 5283 5277 5257 5249 5245 5242 5239 5261 5244 5241 5237 5273 5300 5330 5291 5293 5305 5314 5326 5349 5368 5381
5566 5566 5563 5562 5548 5540 5532 5527 5523 5510 5491 5487 5466 5455 5438 5423 5400 5389 5376 5357 5331 5316 5292 5279 5265 5251 5238 5240 5243 5242 5240 5240 5246 5223 5235 5313 5323 5256 5284 5287 5297 5310 5331 5349 5368
5562 5561 5562 5554 5544 5535 5527 5523 5515 5502 5467 5478 5456 5438 5427 5410 5397 5381 5363 5348 5337 5316 5302 5278 5264 5247 5227 5234 5240 5228 5240 5253 5248 5216 5224 5280 5306 5236 5256 5260 5276 5293 5312 5335 5359
5557 5556 5557 5551 5539 5536 5526 5514 5504 5489 5484 5468 5437 5429 5415 5397 5389 5369 5343 5315 5296 5278 5288 5271 5264 5244 5241 5227 5238 5210 5199 5161 5200 5172 5219 5269 5253 5227 5246 5256 5265 5279 5300 5323 5339
5550 5551 5543 5540 5542 5533 5516 5515 5500 5476 5464 5445 5432 5422 5407 5386 5377 5356 5329 5291 5286 5245 5233 5218 5218 5207 5219 5195 5191 5185 5146 5157 5160 5196 5241 5252 5210 5210 5237 5249 5259 5270 5289 5309 5331
5552 5542 5541 5535 5530 5526 5514 5477 5469 5454 5449 5434 5427 5414 5400 5383 5360 5341 5289 5273 5263 5252 5228 5216 5218 5240 5237 5209 5198 5183 5150 5154 5170 5190 5208 5184 5194 5216 5238 5244 5254 5265 5284 5297 5311
5540 5538 5532 5533 5526 5518 5502 5481 5448 5453 5444 5429 5415 5399 5382 5368 5351 5322 5281 5297 5286 5280 5251 5212 5212 5221 5238 5213 5188 5175 5147 5153 5153 5156 5138 5154 5158 5213 5216 5230 5243 5254 5275 5288 5305
5528 5531 5532 5525 5525 5507 5472 5455 5454 5449 5441 5425 5408 5391 5377 5361 5345 5315 5281 5299 5294 5283 5263 5224 5199 5218 5231 5170 5153 5166 5147 5121 5131 5151 5147 5129 5188 5176 5207 5221 5233 5239 5257 5273 5297
5520 5530 5525 5518 5505 5468 5465 5463 5457 5442 5433 5419 5407 5391 5375 5360 5344 5334 5321 5308 5296 5284 5268 5251 5187 5198 5185 5155 5142 5117 5118 5096 5126 5135 5127 5136 5170 5179 5197 5211 5228 5232 5248 5262 5280
5510 5512 5521 5511 5498 5464 5459 5457 5449 5437 5428 5412 5403 5392 5376 5359 5336 5334 5327 5322 5301 5288 5258 5257 5208 5184 5193 5180 5182 5151 5115 5090 5086 5098 5078 5112 5168 5172 5187 5205 5213 5222 5237 5252 5277
5504 5509 5505 5485 5465 5466 5453 5455 5445 5434 5426 5412 5402 5389 5370 5355 5342 5322 5325 5321 5305 5292 5290 5258 5225 5210 5171 5183 5184 5169 5171 5101 5110 5101 5076 5110 5154 5195 5185 5191 5209 5220 5226 5239 5262
5492 5491 5479 5490 5474 5457 5445 5449 5444 5433 5419 5407 5398 5386 5362 5334 5345 5329 5323 5312 5306 5295 5273 5252 5209 5217 5209 5214 5208 5202 5189 5145 5125 5105 5131 5133 5120 5177 5175 5178 5193 5209 5230 5244 5252
5490 5483 5462 5459 5456 5457 5430 5437 5441 5433 5417 5405 5390 5391 5362 5341 5341 5320 5306 5305 5298 5285 5269 5248 5217 5225 5217 5235 5225 5214 5212 5185 5149 5079 5096 5087 5127 5155 5166 5171 5186 5202 5218 5230 5244
5474 5473 5472 5454 5445 5431 5441 5446 5444 5432 5421 5413 5396 5384 5366 5364 5352 5338 5324 5307 5290 5288 5265 5245 5218 5220 5208 5223 5218 5211 5197 5191 5156 5131 5142 5148 5163 5147 5166 5182 5191 5193 5202 5215 5230